THY759 OMDB-LTFM

Flight info

Callsign THY759
Flight time N/A
Altitude 40000
Route RIDAP M557 TUMAK L602 GADSI M860 NINVA UM860 NAREN UT368 UMLEN UL718 ETESU UT888 SIV UL615 ERSEN
Aircraft A359/H-SDE2E3GHIJ3J4J5LM1ORWXY/LB1D1

Departure

Time 2026-04-26 05:54
Airport Dubai International Airport (OMDB)

Arrival

Time N/A
Airport İstanbul Airport (LTFM)
Time Latitude Longitude Altitude Speed Heading
2026-04-26 04:58 25.25196 55.35710 28 ft 0 kts 211°
2026-04-26 04:59 25.25206 55.35717 27 ft 0 kts 211°
2026-04-26 04:59 25.25200 55.35718 28 ft 0 kts 211°
2026-04-26 05:33 25.25200 55.35719 28 ft 0 kts 211°
2026-04-26 05:37 25.25201 55.35719 28 ft 2 kts 211°
2026-04-26 05:38 25.25223 55.35734 28 ft 4 kts 212°
2026-04-26 05:38 25.25245 55.35750 26 ft 4 kts 216°
2026-04-26 05:38 25.25266 55.35769 27 ft 4 kts 228°
2026-04-26 05:38 25.25278 55.35791 25 ft 4 kts 281°
2026-04-26 05:39 25.25277 55.35797 28 ft 1 kts 302°
2026-04-26 05:44 25.25281 55.35789 28 ft 5 kts 302°
2026-04-26 05:44 25.25314 55.35733 28 ft 13 kts 302°
2026-04-26 05:44 25.25365 55.35641 28 ft 15 kts 302°
2026-04-26 05:45 25.25425 55.35535 28 ft 17 kts 302°
2026-04-26 05:45 25.25489 55.35421 28 ft 18 kts 302°
2026-04-26 05:45 25.25554 55.35305 28 ft 18 kts 302°
2026-04-26 05:45 25.25621 55.35185 28 ft 17 kts 302°
2026-04-26 05:46 25.25683 55.35159 28 ft 9 kts 15°
2026-04-26 05:46 25.25740 55.35194 28 ft 11 kts 30°
2026-04-26 05:46 25.25811 55.35240 28 ft 13 kts 31°
2026-04-26 05:46 25.25894 55.35296 28 ft 15 kts 31°
2026-04-26 05:47 25.25982 55.35370 28 ft 17 kts 50°
2026-04-26 05:47 25.26012 55.35492 28 ft 18 kts 97°
2026-04-26 05:47 25.25957 55.35617 28 ft 19 kts 123°
2026-04-26 05:47 25.25883 55.35745 28 ft 20 kts 122°
2026-04-26 05:48 25.25814 55.35868 28 ft 18 kts 122°
2026-04-26 05:48 25.25744 55.35992 28 ft 20 kts 122°
2026-04-26 05:48 25.25671 55.36120 28 ft 20 kts 122°
2026-04-26 05:48 25.25597 55.36251 28 ft 20 kts 122°
2026-04-26 05:49 25.25523 55.36383 28 ft 20 kts 122°
2026-04-26 05:49 25.25371 55.36654 28 ft 17 kts 122°
2026-04-26 05:49 25.25309 55.36766 28 ft 18 kts 121°
2026-04-26 05:50 25.25239 55.36890 28 ft 20 kts 122°
2026-04-26 05:50 25.25165 55.37022 28 ft 21 kts 122°
2026-04-26 05:50 25.25088 55.37158 28 ft 21 kts 122°
2026-04-26 05:50 25.25012 55.37294 28 ft 19 kts 121°
2026-04-26 05:51 25.24938 55.37426 28 ft 21 kts 122°
2026-04-26 05:51 25.24858 55.37568 28 ft 21 kts 122°
2026-04-26 05:51 25.24779 55.37706 28 ft 20 kts 122°
2026-04-26 05:51 25.24722 55.37807 28 ft 12 kts 122°
2026-04-26 05:52 25.24713 55.37857 28 ft 5 kts 68°
2026-04-26 05:52 25.24743 55.37891 28 ft 7 kts 38°
2026-04-26 05:52 25.24792 55.37929 28 ft 10 kts 33°
2026-04-26 05:52 25.24849 55.37942 28 ft 7 kts 333°
2026-04-26 05:53 25.24881 55.37890 28 ft 13 kts 302°
2026-04-26 05:53 25.25061 55.37567 28 ft 86 kts 301°
2026-04-26 05:53 25.25489 55.36795 29 ft 148 kts 301°
2026-04-26 05:53 25.26090 55.35738 471 ft 163 kts 303°
2026-04-26 05:54 25.26640 55.34655 1169 ft 161 kts 297°
2026-04-26 05:54 25.27107 55.33520 1609 ft 170 kts 297°
2026-04-26 05:54 25.27758 55.32375 1831 ft 186 kts 308°
2026-04-26 05:54 25.28610 55.31205 2086 ft 204 kts 309°
2026-04-26 05:55 25.29479 55.29897 2498 ft 216 kts 304°
2026-04-26 05:55 25.30279 55.28459 3032 ft 223 kts 302°
2026-04-26 05:55 25.31117 55.27004 3604 ft 226 kts 305°
2026-04-26 05:55 25.32019 55.25572 3944 ft 228 kts 306°
2026-04-26 05:56 25.32948 55.24124 4327 ft 233 kts 306°
2026-04-26 05:56 25.33877 55.22680 4894 ft 234 kts 306°
2026-04-26 05:56 25.34817 55.21207 5448 ft 236 kts 306°
2026-04-26 05:56 25.35626 55.19624 5973 ft 239 kts 290°
2026-04-26 05:57 25.35870 55.17777 6350 ft 251 kts 271°
2026-04-26 05:57 25.35810 55.15789 6613 ft 266 kts 268°
2026-04-26 05:57 25.35709 55.13721 7026 ft 272 kts 268°
2026-04-26 05:57 25.35615 55.11622 7544 ft 275 kts 268°
2026-04-26 05:58 25.35528 55.09503 8077 ft 277 kts 268°
2026-04-26 05:58 25.35445 55.07369 8621 ft 279 kts 268°
2026-04-26 05:58 25.35366 55.05250 9183 ft 281 kts 268°
2026-04-26 05:58 25.35286 55.03085 9759 ft 282 kts 268°
2026-04-26 05:59 25.35205 55.00902 10227 ft 287 kts 268°
2026-04-26 05:59 25.35122 54.98648 10461 ft 300 kts 268°
2026-04-26 05:59 25.35036 54.96293 10689 ft 313 kts 267°
2026-04-26 05:59 25.34945 54.93843 10908 ft 325 kts 267°
2026-04-26 06:00 25.34938 54.91310 11135 ft 335 kts 274°
2026-04-26 06:00 25.35409 54.88771 11519 ft 340 kts 285°
2026-04-26 06:00 25.36105 54.86293 11941 ft 344 kts 287°
2026-04-26 06:00 25.36843 54.83763 12348 ft 347 kts 286°
2026-04-26 06:01 25.37582 54.81217 12819 ft 349 kts 285°
2026-04-26 06:01 25.38321 54.78656 13258 ft 351 kts 285°
2026-04-26 06:01 25.39063 54.76072 13689 ft 354 kts 285°
2026-04-26 06:01 25.39809 54.73466 14062 ft 356 kts 285°
2026-04-26 06:02 25.40558 54.70848 14463 ft 357 kts 285°
2026-04-26 06:02 25.41309 54.68228 14905 ft 358 kts 285°
2026-04-26 06:02 25.42047 54.65632 15322 ft 359 kts 285°
2026-04-26 06:02 25.42796 54.62997 15745 ft 360 kts 285°
2026-04-26 06:03 25.43551 54.60349 16161 ft 361 kts 286°
2026-04-26 06:03 25.44327 54.57700 16581 ft 363 kts 286°
2026-04-26 06:03 25.45116 54.55044 16994 ft 364 kts 287°
2026-04-26 06:03 25.45910 54.52381 17410 ft 365 kts 287°
2026-04-26 06:04 25.46707 54.49703 17823 ft 366 kts 287°
2026-04-26 06:04 25.47502 54.47028 18252 ft 367 kts 287°
2026-04-26 06:04 25.48287 54.44375 18594 ft 368 kts 287°
2026-04-26 06:04 25.49071 54.41720 18908 ft 370 kts 287°
2026-04-26 06:05 25.49871 54.39006 19246 ft 372 kts 286°
2026-04-26 06:05 25.50675 54.36278 19593 ft 373 kts 286°
2026-04-26 06:05 25.51479 54.33547 19946 ft 374 kts 286°
2026-04-26 06:05 25.52286 54.30801 20280 ft 376 kts 286°
2026-04-26 06:06 25.53096 54.28044 20608 ft 377 kts 285°
2026-04-26 06:06 25.53908 54.25277 20939 ft 379 kts 285°
2026-04-26 06:06 25.54726 54.22497 21250 ft 380 kts 285°
2026-04-26 06:06 25.55535 54.19747 21588 ft 382 kts 285°
2026-04-26 06:07 25.56356 54.16950 21903 ft 383 kts 285°
2026-04-26 06:07 25.57180 54.14134 22233 ft 385 kts 285°
2026-04-26 06:07 25.58007 54.11308 22547 ft 386 kts 285°
2026-04-26 06:07 25.58835 54.08475 22848 ft 388 kts 285°
2026-04-26 06:08 25.59667 54.05629 23164 ft 389 kts 285°
2026-04-26 06:08 25.60493 54.02765 23459 ft 391 kts 284°
2026-04-26 06:08 25.61313 53.99889 23712 ft 392 kts 284°
2026-04-26 06:08 25.62120 53.97043 23985 ft 393 kts 284°
2026-04-26 06:09 25.62939 53.94155 24257 ft 393 kts 284°
2026-04-26 06:09 25.63760 53.91261 24540 ft 394 kts 284°
2026-04-26 06:09 25.64583 53.88363 24788 ft 395 kts 284°
2026-04-26 06:09 25.65408 53.85455 25024 ft 396 kts 284°
2026-04-26 06:10 25.66238 53.82533 25265 ft 397 kts 284°
2026-04-26 06:10 25.67057 53.79645 25504 ft 399 kts 284°
2026-04-26 06:10 25.67890 53.76710 25756 ft 400 kts 284°
2026-04-26 06:10 25.68725 53.73764 26000 ft 401 kts 284°
2026-04-26 06:11 25.69563 53.70815 26260 ft 402 kts 284°
2026-04-26 06:11 25.70400 53.67852 26511 ft 403 kts 284°
2026-04-26 06:11 25.71234 53.64884 26770 ft 404 kts 284°
2026-04-26 06:11 25.72070 53.61898 27017 ft 406 kts 284°
2026-04-26 06:12 25.72859 53.59078 27265 ft 407 kts 284°
2026-04-26 06:12 25.73308 53.57474 27405 ft 408 kts 284°
2026-04-26 06:12 25.74149 53.54470 27663 ft 409 kts 284°
2026-04-26 06:12 25.74993 53.51456 27942 ft 410 kts 284°
2026-04-26 06:13 25.75844 53.48430 28245 ft 411 kts 284°
2026-04-26 06:13 25.76697 53.45397 28559 ft 412 kts 284°
2026-04-26 06:13 25.77550 53.42356 28824 ft 414 kts 284°
2026-04-26 06:13 25.78405 53.39303 29097 ft 415 kts 284°
2026-04-26 06:14 25.79262 53.36240 29368 ft 417 kts 284°
2026-04-26 06:14 25.80111 53.33203 29649 ft 418 kts 284°
2026-04-26 06:14 25.80976 53.30109 29933 ft 420 kts 284°
2026-04-26 06:14 25.81841 53.27013 30199 ft 421 kts 284°
2026-04-26 06:15 25.82708 53.23908 30501 ft 421 kts 284°
2026-04-26 06:15 25.83576 53.20802 30795 ft 421 kts 285°
2026-04-26 06:15 25.84595 53.17746 31139 ft 422 kts 290°
2026-04-26 06:15 25.85755 53.14752 31498 ft 421 kts 291°
2026-04-26 06:16 25.86941 53.11784 31836 ft 421 kts 292°
2026-04-26 06:16 25.88126 53.08867 32159 ft 420 kts 292°
2026-04-26 06:16 25.89335 53.05911 32466 ft 420 kts 292°
2026-04-26 06:16 25.90541 53.02961 32790 ft 419 kts 292°
2026-04-26 06:17 25.91745 53.00013 33069 ft 419 kts 292°
2026-04-26 06:17 25.92949 52.97059 33342 ft 419 kts 292°
2026-04-26 06:17 25.94148 52.94109 33618 ft 419 kts 293°
2026-04-26 06:17 25.95346 52.91157 33910 ft 419 kts 293°
2026-04-26 06:18 25.96540 52.88209 34133 ft 419 kts 293°
2026-04-26 06:18 25.97724 52.85283 34279 ft 421 kts 293°
2026-04-26 06:18 25.98927 52.82307 34435 ft 423 kts 293°
2026-04-26 06:18 26.00137 52.79314 34600 ft 425 kts 293°
2026-04-26 06:19 26.01347 52.76319 34836 ft 424 kts 293°
2026-04-26 06:19 26.02560 52.73336 35122 ft 423 kts 293°
2026-04-26 06:19 26.03838 52.70397 35459 ft 421 kts 295°
2026-04-26 06:19 26.05160 52.67489 35718 ft 421 kts 295°
2026-04-26 06:20 26.06497 52.64591 35949 ft 421 kts 295°
2026-04-26 06:20 26.07813 52.61732 36185 ft 421 kts 295°
2026-04-26 06:20 26.09141 52.58829 36437 ft 421 kts 295°
2026-04-26 06:20 26.10458 52.55927 36684 ft 420 kts 295°
2026-04-26 06:21 26.11769 52.53020 36939 ft 420 kts 295°
2026-04-26 06:21 26.13077 52.50119 37173 ft 420 kts 295°
2026-04-26 06:21 26.14386 52.47215 37424 ft 419 kts 294°
2026-04-26 06:21 26.15694 52.44311 37669 ft 419 kts 294°
2026-04-26 06:22 26.16998 52.41417 37950 ft 418 kts 294°
2026-04-26 06:22 26.18282 52.38565 38274 ft 416 kts 294°
2026-04-26 06:22 26.19575 52.35692 38547 ft 415 kts 294°
2026-04-26 06:22 26.20866 52.32819 38739 ft 415 kts 294°
2026-04-26 06:23 26.22160 52.29939 38891 ft 416 kts 294°
2026-04-26 06:23 26.23438 52.27052 39038 ft 416 kts 294°
2026-04-26 06:23 26.24693 52.24155 39209 ft 416 kts 293°
2026-04-26 06:23 26.25944 52.21244 39372 ft 416 kts 293°
2026-04-26 06:24 26.27189 52.18341 39533 ft 416 kts 293°
2026-04-26 06:24 26.28420 52.15474 39698 ft 416 kts 294°
2026-04-26 06:24 26.29669 52.12572 39844 ft 416 kts 294°
2026-04-26 06:24 26.30923 52.09662 39952 ft 417 kts 294°
2026-04-26 06:25 26.32178 52.06755 39967 ft 416 kts 294°
2026-04-26 06:25 26.34683 52.00960 39960 ft 415 kts 294°
2026-04-26 06:26 26.37162 51.95162 39964 ft 414 kts 291°
2026-04-26 06:26 26.39262 51.89232 39963 ft 414 kts 289°
2026-04-26 06:27 26.41291 51.83222 39964 ft 414 kts 289°
2026-04-26 06:27 26.43302 51.77209 39965 ft 414 kts 289°
2026-04-26 06:28 26.45312 51.71182 39963 ft 414 kts 289°
2026-04-26 06:28 26.47308 51.65223 39965 ft 412 kts 289°
2026-04-26 06:29 26.49309 51.59238 39968 ft 412 kts 289°
2026-04-26 06:29 26.51301 51.53236 39970 ft 413 kts 289°
2026-04-26 06:30 26.53282 51.47259 39974 ft 413 kts 289°
2026-04-26 06:30 26.55278 51.41238 39975 ft 414 kts 289°
2026-04-26 06:31 26.57274 51.35216 39977 ft 413 kts 289°
2026-04-26 06:31 26.59260 51.29211 39974 ft 412 kts 288°
2026-04-26 06:32 26.61238 51.23249 39972 ft 412 kts 289°
2026-04-26 06:32 26.63223 51.17248 39971 ft 412 kts 288°
2026-04-26 06:33 26.65208 51.11237 39974 ft 412 kts 288°
2026-04-26 06:33 26.67188 51.05233 39977 ft 412 kts 288°
2026-04-26 06:34 26.69170 50.99217 39984 ft 412 kts 288°
2026-04-26 06:34 26.71086 50.93256 39977 ft 410 kts 288°
2026-04-26 06:35 26.72993 50.87251 39969 ft 409 kts 288°
2026-04-26 06:35 26.74904 50.81242 39976 ft 410 kts 288°
2026-04-26 06:36 26.76820 50.75228 39984 ft 410 kts 288°
2026-04-26 06:36 26.78731 50.69252 39980 ft 411 kts 289°
2026-04-26 06:37 26.81376 50.63565 39992 ft 416 kts 301°
2026-04-26 06:37 26.84910 50.58422 39986 ft 418 kts 304°
2026-04-26 06:38 26.88598 50.53388 39982 ft 418 kts 304°
2026-04-26 06:38 26.92276 50.48395 39985 ft 418 kts 304°
2026-04-26 06:39 26.96215 50.43559 39984 ft 421 kts 308°
2026-04-26 06:39 27.00304 50.38855 39995 ft 421 kts 308°
2026-04-26 06:40 27.04363 50.34122 39985 ft 421 kts 308°
2026-04-26 06:40 27.08354 50.29372 39985 ft 421 kts 307°
2026-04-26 06:41 27.12329 50.24553 39991 ft 421 kts 307°
2026-04-26 06:41 27.16443 50.19867 39988 ft 426 kts 314°
2026-04-26 06:42 27.21144 50.15770 39987 ft 428 kts 316°
2026-04-26 06:42 27.25920 50.11825 39993 ft 429 kts 317°
2026-04-26 06:43 27.30745 50.07869 39990 ft 429 kts 317°
2026-04-26 06:43 27.35560 50.03902 39990 ft 429 kts 316°
2026-04-26 06:44 27.40317 49.99858 39990 ft 428 kts 315°
2026-04-26 06:44 27.44946 49.95738 39989 ft 427 kts 315°
2026-04-26 06:45 27.49608 49.91586 40012 ft 428 kts 315°
2026-04-26 06:45 27.54289 49.87448 39990 ft 427 kts 315°
2026-04-26 06:46 27.58968 49.83321 39987 ft 427 kts 315°
2026-04-26 06:46 27.63644 49.79194 39988 ft 427 kts 315°
2026-04-26 06:47 27.68289 49.75090 39994 ft 427 kts 315°
2026-04-26 06:47 27.72951 49.70965 39992 ft 426 kts 315°
2026-04-26 06:48 27.77609 49.66839 39988 ft 425 kts 314°
2026-04-26 06:48 27.82263 49.62705 39989 ft 425 kts 314°
2026-04-26 06:49 27.86865 49.58589 39987 ft 424 kts 314°
2026-04-26 06:49 27.91488 49.54450 39988 ft 423 kts 314°
2026-04-26 06:50 27.96108 49.50313 39989 ft 424 kts 314°
2026-04-26 06:50 28.00728 49.46173 39988 ft 424 kts 314°
2026-04-26 06:51 28.05313 49.42059 39990 ft 423 kts 314°
2026-04-26 06:51 28.12166 49.35792 39988 ft 422 kts 313°
2026-04-26 06:52 28.16731 49.31608 39990 ft 422 kts 313°
2026-04-26 06:52 28.21295 49.27431 39991 ft 422 kts 313°
2026-04-26 06:53 28.25829 49.23281 39993 ft 422 kts 313°
2026-04-26 06:53 28.30392 49.19102 39988 ft 421 kts 313°
2026-04-26 06:54 28.34952 49.14918 39996 ft 421 kts 313°
2026-04-26 06:54 28.39548 49.10774 39993 ft 425 kts 316°
2026-04-26 06:55 28.44376 49.06970 39994 ft 426 kts 317°
2026-04-26 06:55 28.49291 49.03199 39994 ft 426 kts 317°
2026-04-26 06:56 28.54209 48.99441 40000 ft 426 kts 317°
2026-04-26 06:56 28.59124 48.95673 39993 ft 426 kts 317°
2026-04-26 06:57 28.63998 48.91926 39993 ft 426 kts 317°
2026-04-26 06:57 28.68903 48.88149 39993 ft 426 kts 317°
2026-04-26 06:58 28.73808 48.84368 40001 ft 426 kts 317°
2026-04-26 06:58 28.78685 48.80604 40000 ft 426 kts 317°
2026-04-26 06:59 28.83605 48.76819 39985 ft 427 kts 317°
2026-04-26 06:59 28.88531 48.73049 40004 ft 427 kts 317°
2026-04-26 07:00 28.93463 48.69270 39993 ft 427 kts 317°
2026-04-26 07:00 28.98397 48.65484 39993 ft 427 kts 317°
2026-04-26 07:01 29.03295 48.61719 39991 ft 427 kts 317°
2026-04-26 07:01 29.08224 48.57926 39990 ft 427 kts 317°
2026-04-26 07:02 29.13151 48.54129 39992 ft 427 kts 317°
2026-04-26 07:02 29.18075 48.50331 39987 ft 427 kts 317°
2026-04-26 07:03 29.22969 48.46551 39998 ft 427 kts 317°
2026-04-26 07:03 29.27895 48.42742 39981 ft 427 kts 317°
2026-04-26 07:04 29.32822 48.38928 39986 ft 428 kts 317°
2026-04-26 07:04 29.37753 48.35106 40010 ft 428 kts 317°
2026-04-26 07:05 29.42652 48.31306 39989 ft 428 kts 317°
2026-04-26 07:05 29.47698 48.27625 39988 ft 433 kts 320°
2026-04-26 07:06 29.52976 48.24251 39984 ft 435 kts 321°
2026-04-26 07:06 29.58263 48.20886 39982 ft 434 kts 321°
2026-04-26 07:07 29.63520 48.17462 39983 ft 434 kts 321°
2026-04-26 07:07 29.68761 48.14005 39982 ft 434 kts 320°
2026-04-26 07:08 29.73963 48.10563 39988 ft 434 kts 320°
2026-04-26 07:08 29.79201 48.07095 39983 ft 434 kts 320°
2026-04-26 07:09 29.84439 48.03625 39979 ft 435 kts 320°
2026-04-26 07:09 29.89646 48.00173 39993 ft 435 kts 320°
2026-04-26 07:11 30.02448 47.91065 39977 ft 422 kts 310°
2026-04-26 07:11 30.06460 47.86239 39989 ft 415 kts 304°
2026-04-26 07:12 30.10218 47.81251 39974 ft 415 kts 303°
2026-04-26 07:12 30.13974 47.76184 39975 ft 415 kts 303°
2026-04-26 07:13 30.17738 47.71125 39973 ft 416 kts 303°
2026-04-26 07:13 30.21518 47.66063 39973 ft 416 kts 303°
2026-04-26 07:14 30.25301 47.60995 39967 ft 416 kts 303°
2026-04-26 07:14 30.29059 47.55955 39974 ft 417 kts 303°
2026-04-26 07:15 30.32840 47.50877 40014 ft 416 kts 303°
2026-04-26 07:15 30.36623 47.45789 39971 ft 417 kts 303°
2026-04-26 07:16 30.40410 47.40688 39973 ft 417 kts 303°
2026-04-26 07:16 30.44167 47.35621 39972 ft 417 kts 303°
2026-04-26 07:17 30.47945 47.30522 39983 ft 417 kts 303°
2026-04-26 07:17 30.51716 47.25422 39977 ft 417 kts 303°
2026-04-26 07:18 30.55506 47.20327 39976 ft 419 kts 304°
2026-04-26 07:18 30.59851 47.15758 40031 ft 427 kts 311°
2026-04-26 07:18 30.62150 47.13572 40193 ft 428 kts 312°
2026-04-26 07:19 30.64467 47.11409 40392 ft 427 kts 312°
2026-04-26 07:19 30.66789 47.09257 40585 ft 426 kts 312°
2026-04-26 07:19 30.69107 47.07108 40758 ft 426 kts 312°
2026-04-26 07:19 30.71421 47.04958 40930 ft 426 kts 312°
2026-04-26 07:20 30.73733 47.02801 40977 ft 428 kts 312°
2026-04-26 07:20 30.78374 46.98452 40977 ft 433 kts 312°
2026-04-26 07:21 30.83062 46.94059 40973 ft 433 kts 312°
2026-04-26 07:21 30.87750 46.89660 40974 ft 433 kts 312°
2026-04-26 07:22 30.92435 46.85257 40978 ft 433 kts 312°
2026-04-26 07:22 30.97117 46.80850 40975 ft 433 kts 312°
2026-04-26 07:23 31.01768 46.76465 40960 ft 433 kts 312°
2026-04-26 07:23 31.06450 46.72047 40977 ft 433 kts 312°
2026-04-26 07:24 31.11133 46.67621 40979 ft 434 kts 312°
2026-04-26 07:24 31.15815 46.63191 40970 ft 434 kts 312°
2026-04-26 07:25 31.20471 46.58780 40995 ft 434 kts 312°
2026-04-26 07:25 31.25165 46.54326 40973 ft 435 kts 312°
2026-04-26 07:26 31.29855 46.49870 40976 ft 435 kts 312°
2026-04-26 07:26 31.34551 46.45403 41005 ft 435 kts 312°
2026-04-26 07:27 31.39217 46.40959 40979 ft 436 kts 312°
2026-04-26 07:27 31.43925 46.36469 40966 ft 436 kts 311°
2026-04-26 07:28 31.48627 46.31980 41012 ft 436 kts 312°
2026-04-26 07:28 31.53330 46.27481 40980 ft 437 kts 312°
2026-04-26 07:29 31.58006 46.23002 40981 ft 437 kts 311°
2026-04-26 07:29 31.62718 46.18485 41003 ft 437 kts 312°
2026-04-26 07:30 31.67434 46.13956 40987 ft 438 kts 311°
2026-04-26 07:30 31.72155 46.09417 40991 ft 439 kts 311°
2026-04-26 07:31 31.76872 46.04872 41007 ft 438 kts 311°
2026-04-26 07:31 31.81508 46.00286 40985 ft 438 kts 311°
2026-04-26 07:32 31.86155 45.95644 40990 ft 439 kts 311°
2026-04-26 07:32 31.90813 45.91002 41004 ft 439 kts 311°
2026-04-26 07:33 31.95481 45.86356 40985 ft 440 kts 311°
2026-04-26 07:33 32.00118 45.81740 40976 ft 440 kts 311°
2026-04-26 07:34 32.04789 45.77083 40997 ft 440 kts 311°
2026-04-26 07:34 32.09460 45.72418 40987 ft 440 kts 311°
2026-04-26 07:35 32.14123 45.67756 40983 ft 440 kts 311°
2026-04-26 07:35 32.18761 45.63112 40996 ft 440 kts 311°
2026-04-26 07:36 32.23430 45.58429 40981 ft 441 kts 311°
2026-04-26 07:36 32.28098 45.53742 40975 ft 441 kts 311°
2026-04-26 07:37 32.32767 45.49046 40993 ft 441 kts 311°
2026-04-26 07:37 32.37439 45.44340 40981 ft 442 kts 311°
2026-04-26 07:38 32.42083 45.39657 40983 ft 442 kts 311°
2026-04-26 07:38 32.46759 45.34936 40990 ft 442 kts 311°
2026-04-26 07:39 32.51441 45.30202 40976 ft 442 kts 311°
2026-04-26 07:39 32.56270 45.25630 40983 ft 449 kts 316°
2026-04-26 07:40 32.61401 45.21460 40975 ft 451 kts 317°
2026-04-26 07:40 32.66634 45.17318 40973 ft 452 kts 317°
2026-04-26 07:41 32.71874 45.13180 40968 ft 452 kts 317°
2026-04-26 07:41 32.77102 45.09030 40979 ft 453 kts 317°
2026-04-26 07:42 32.82307 45.04885 40977 ft 453 kts 317°
2026-04-26 07:42 32.87549 45.00703 40995 ft 454 kts 317°
2026-04-26 07:43 32.92794 44.96513 40984 ft 455 kts 317°
2026-04-26 07:43 32.98019 44.92334 40983 ft 455 kts 317°
2026-04-26 07:44 33.03276 44.88125 40986 ft 455 kts 317°
2026-04-26 07:44 33.08528 44.83912 40985 ft 455 kts 317°
2026-04-26 07:45 33.13779 44.79694 40986 ft 455 kts 317°
2026-04-26 07:45 33.19194 44.75686 40991 ft 466 kts 326°
2026-04-26 07:45 33.22195 44.74256 40990 ft 477 kts 334°
2026-04-26 07:46 33.25476 44.73380 40993 ft 490 kts 344°
2026-04-26 07:46 33.32346 44.72854 40998 ft 498 kts 349°
2026-04-26 07:47 33.39294 44.72688 40999 ft 500 kts 350°
2026-04-26 07:47 33.46249 44.72543 40996 ft 499 kts 350°
2026-04-26 07:48 33.53192 44.72352 40996 ft 499 kts 349°
2026-04-26 07:48 33.60095 44.72136 41002 ft 501 kts 349°
2026-04-26 07:49 33.67077 44.71911 41003 ft 502 kts 349°
2026-04-26 07:49 33.74066 44.71690 41005 ft 503 kts 349°
2026-04-26 07:50 33.84492 44.71364 41004 ft 501 kts 349°
2026-04-26 07:50 33.91455 44.71144 41003 ft 501 kts 349°
2026-04-26 07:51 33.98418 44.70922 41006 ft 500 kts 350°
2026-04-26 07:51 34.05375 44.70701 41006 ft 500 kts 350°
2026-04-26 07:52 34.12327 44.70479 41030 ft 500 kts 350°
2026-04-26 07:52 34.19241 44.70259 41009 ft 500 kts 350°
2026-04-26 07:53 34.26193 44.70037 41010 ft 500 kts 350°
2026-04-26 07:53 34.33155 44.69815 41022 ft 500 kts 350°
2026-04-26 07:54 34.40117 44.69592 41018 ft 500 kts 350°
2026-04-26 07:54 34.47075 44.69348 41011 ft 498 kts 348°
2026-04-26 07:55 34.53660 44.67750 41029 ft 478 kts 332°
2026-04-26 07:55 34.59881 44.64962 41014 ft 476 kts 330°
2026-04-26 07:56 34.66029 44.61977 41019 ft 476 kts 329°
2026-04-26 07:56 34.72130 44.58992 41022 ft 476 kts 330°
2026-04-26 07:57 34.78284 44.56004 41021 ft 477 kts 330°
2026-04-26 07:57 34.84453 44.53021 41020 ft 477 kts 330°
2026-04-26 07:58 34.90625 44.50035 41021 ft 477 kts 330°
2026-04-26 07:58 34.96755 44.47065 41036 ft 477 kts 330°
2026-04-26 07:59 35.02928 44.44066 41023 ft 478 kts 330°
2026-04-26 07:59 35.09108 44.41058 41025 ft 478 kts 330°
2026-04-26 08:00 35.15297 44.38042 41018 ft 479 kts 330°
2026-04-26 08:00 35.21456 44.35037 41025 ft 480 kts 331°
2026-04-26 08:01 35.27448 44.32108 41019 ft 480 kts 331°
2026-04-26 08:01 35.33537 44.29075 41020 ft 479 kts 330°
2026-04-26 08:02 35.38634 44.26432 41020 ft 479 kts 329°
2026-04-26 08:02 35.44761 44.23242 41020 ft 479 kts 329°
2026-04-26 08:03 35.51898 44.19546 41021 ft 479 kts 330°
2026-04-26 08:03 35.57005 44.16908 41019 ft 479 kts 330°
2026-04-26 08:04 35.63149 44.13731 41020 ft 479 kts 330°
2026-04-26 08:04 35.69297 44.10544 41022 ft 479 kts 330°
2026-04-26 08:05 35.76431 44.06841 41017 ft 479 kts 330°
2026-04-26 08:05 35.82581 44.03644 41015 ft 480 kts 331°
2026-04-26 08:06 35.87691 44.00987 41016 ft 480 kts 330°
2026-04-26 08:06 35.93844 43.97773 41024 ft 481 kts 331°
2026-04-26 08:07 36.00007 43.94548 41030 ft 481 kts 331°
2026-04-26 08:07 36.06173 43.91319 41044 ft 481 kts 331°
2026-04-26 08:08 36.12300 43.88106 41044 ft 482 kts 331°
2026-04-26 08:08 36.18480 43.84859 41046 ft 482 kts 331°
2026-04-26 08:09 36.24652 43.81612 41046 ft 482 kts 331°
2026-04-26 08:09 36.30827 43.78372 41041 ft 482 kts 332°
2026-04-26 08:10 36.36984 43.75188 41043 ft 482 kts 332°
2026-04-26 08:10 36.43185 43.71983 41024 ft 483 kts 332°
2026-04-26 08:11 36.49384 43.68767 41017 ft 483 kts 332°
2026-04-26 08:11 36.55586 43.65540 41026 ft 483 kts 332°
2026-04-26 08:12 36.61747 43.62329 41025 ft 484 kts 332°
2026-04-26 08:12 36.67957 43.59086 41040 ft 484 kts 332°
2026-04-26 08:13 36.74162 43.55841 41038 ft 484 kts 332°
2026-04-26 08:13 36.80336 43.52508 41051 ft 483 kts 330°
2026-04-26 08:14 36.86454 43.49047 41060 ft 483 kts 330°
2026-04-26 08:14 36.92533 43.45608 41062 ft 483 kts 330°
2026-04-26 08:15 36.98659 43.42162 41087 ft 483 kts 330°
2026-04-26 08:15 37.04795 43.38718 41083 ft 483 kts 331°
2026-04-26 08:16 37.10933 43.35268 41095 ft 484 kts 330°
2026-04-26 08:16 37.17025 43.31838 41111 ft 483 kts 330°
2026-04-26 08:17 37.23164 43.28374 41111 ft 484 kts 330°
2026-04-26 08:17 37.29277 43.24862 41141 ft 481 kts 327°
2026-04-26 08:18 37.34640 43.20057 41141 ft 468 kts 310°
2026-04-26 08:18 37.38480 43.13599 41143 ft 459 kts 296°
2026-04-26 08:19 37.41544 43.06624 41144 ft 459 kts 294°
2026-04-26 08:19 37.44510 42.99519 41136 ft 459 kts 294°
2026-04-26 08:20 37.47487 42.92416 41137 ft 458 kts 294°
2026-04-26 08:20 37.50477 42.85338 41154 ft 458 kts 294°
2026-04-26 08:21 37.53452 42.78307 41132 ft 457 kts 294°
2026-04-26 08:21 37.56439 42.71234 41131 ft 457 kts 294°
2026-04-26 08:22 37.59424 42.64151 41140 ft 457 kts 294°
2026-04-26 08:22 37.62412 42.57065 41123 ft 458 kts 294°
2026-04-26 08:23 37.65373 42.50021 41123 ft 458 kts 294°
2026-04-26 08:23 37.68348 42.42928 41114 ft 457 kts 294°
2026-04-26 08:24 37.71318 42.35820 41107 ft 458 kts 293°
2026-04-26 08:24 37.74289 42.28701 41110 ft 458 kts 294°
2026-04-26 08:25 37.77258 42.21582 41107 ft 458 kts 293°
2026-04-26 08:25 37.80201 42.14507 41107 ft 457 kts 294°
2026-04-26 08:26 37.83154 42.07380 41107 ft 458 kts 293°
2026-04-26 08:26 37.86108 42.00246 41110 ft 458 kts 293°
2026-04-26 08:27 37.89057 41.93106 41105 ft 458 kts 293°
2026-04-26 08:27 37.92485 41.86340 41108 ft 464 kts 304°
2026-04-26 08:28 37.96671 41.80085 41105 ft 466 kts 306°
2026-04-26 08:28 38.00975 41.73928 41107 ft 466 kts 307°
2026-04-26 08:29 38.05254 41.67821 41113 ft 466 kts 307°
2026-04-26 08:29 38.09541 41.61660 41112 ft 465 kts 306°
2026-04-26 08:30 38.13814 41.55489 41115 ft 465 kts 306°
2026-04-26 08:30 38.18081 41.49310 41115 ft 465 kts 306°
2026-04-26 08:31 38.22343 41.43123 41125 ft 465 kts 306°
2026-04-26 08:31 38.26578 41.36965 41127 ft 465 kts 306°
2026-04-26 08:32 38.30840 41.30763 41125 ft 465 kts 306°
2026-04-26 08:32 38.35097 41.24554 41141 ft 465 kts 306°
2026-04-26 08:33 38.39349 41.18338 41130 ft 466 kts 306°
2026-04-26 08:33 38.43572 41.12152 41129 ft 466 kts 306°
2026-04-26 08:34 38.47820 41.05909 41142 ft 466 kts 306°
2026-04-26 08:34 38.51982 40.99575 41144 ft 466 kts 305°
2026-04-26 08:35 38.56115 40.93196 41146 ft 466 kts 305°
2026-04-26 08:35 38.60068 40.86739 41138 ft 461 kts 298°
2026-04-26 08:36 38.62726 40.79399 41128 ft 452 kts 282°